Location: College Park
(38.9810°N, 76.9370°W)
Time: 02:46:51
(UTC-04:00)

Envisat - Pass Details

Date: 12 February 2018
Orbit: 764 x 766 km, 98.2° (Epoch: 20 June)

Event Time Altitude Azimuth Distance (km) Brightness Sun altitude
Exits shadow 21:08:31 - 234° (SW) 2,509 6.0 -40.4°
Reaches altitude 10° 21:09:37 10° 244° (WSW) 2,299 5.9 -40.6°
Maximum altitude 21:11:47 13° 270° (W) 2,120 5.8 -41.0°
Drops below altitude 10° 21:13:57 10° 296° (WNW) 2,305 6.1 -41.4°
Sets 21:17:43 0° 324° (NW) 3,237 6.8 -42.1°
